Location: Caltech
(34.1382°N, 118.1253°W)
Time: 15:12:39
(UTC-07:00)

Gbstr 26 Del rocket - Visible Passes

Search period start: 22 March 2017 00:00
Search period end: 01 April 2017 00:00
Orbit: 493 x 1266 km, 51.8° (Epoch: 21 March)

Date Brightness Start Highest point End Pass type
(mag) Time Alt. Az. Time Alt. Az. Time Alt. Az.
29 Mar 7.2 06:11:54 10° SE 06:12:32 10° ESE 06:13:09 10° ESE visible
30 Mar 6.8 06:04:29 10° SSE 06:08:07 14° ESE 06:11:32 10° E visible
31 Mar 6.7 05:58:45 10° SSE 06:03:43 19° SE 06:08:16 10° E visible
